Weather History for Marrakech, Morocco

Change the Weather History Date:

Monday, December 3, 2012

  Actual Average Record
Temperature  
Mean Temperature 48 °F -  
Max Temperature 59 °F 64 °F - ()
Min Temperature 37 °F 43 °F - ()
Degree Days  
Heating Degree Days 17    
Moisture  
Dew Point 39 °F    
Average Humidity 76    
Maximum Humidity 100    
Minimum Humidity 32    
Precipitation  
Precipitation 0.00 in 0.04 in - ()
Sea Level Pressure  
Sea Level Pressure 30.39 in    
Wind  
Wind Speed 1 mph ()    
Max Wind Speed 7 mph    
Max Gust Speed -    
Visibility 5.7 miles    
Events      
T = Trace of Precipitation, MM = Missing Value Source: Averaged Metar Reports

Daily Weather History Graph

Daily Weather History Graph

Search for Another Location

Airport:

Trip Planner

Search our weather history database for the weather conditions in past years. The results will help you decide how hot, cold, wet, or windy it might be!

Date:

Astronomy

Dec. 03, 2012 Rise Set
Actual Time 7:15 AM WET 5:28 PM WET
Civil Twilight 6:49 AM WET 5:54 PM WET
Nautical Twilight 6:19 AM WET 6:25 PM WET
Astronomical Twilight 5:49 AM WET 6:54 PM WET
Moon 9:52 PM WET (12/3) 10:39 AM WET (12/3)
Length of Visible Light 11h 05m
Length of Day
10h 12m
Waning Gibbous, 80% of the Moon is Illuminated
Dec 3
Waning Gibbous
Dec 6
Last Quarter
Dec 13
New
Dec 20
First Quarter
Dec 28
Full

Hourly Weather History & Observations

Time (WET) Temp. Windchill Dew Point Humidity Pressure Visibility Wind Dir Wind Speed Gust Speed Precip Events Conditions
12:00 AM 43 °F - 41 °F 88% 30.35 in 6 mi Calm Calm - -  
12:00 AM 42.8 °F - 41.0 °F 93% 30.30 in - Calm Calm - N/A   Clear
12:30 AM 42.8 °F - 41.0 °F 93% 30.30 in 5.6 mi Calm Calm - N/A   Unknown
1:00 AM 42.8 °F - 39.2 °F 87% 30.30 in - Calm Calm - N/A   Clear
1:30 AM 41.0 °F - 41.0 °F 100% 30.33 in 5.6 mi Calm Calm - N/A   Unknown
2:00 AM 41.0 °F - 39.2 °F 93% 30.33 in - Calm Calm - N/A   Clear
2:30 AM 41.0 °F - 39.2 °F 93% 30.33 in - Calm Calm - N/A   Clear
3:00 AM 41 °F - 40 °F 95% 30.38 in 6 mi Calm Calm - -  
3:00 AM 41.0 °F - 39.2 °F 93% 30.33 in - Calm Calm - N/A   Clear
3:30 AM 39.2 °F - 39.2 °F 100% 30.33 in - Calm Calm - N/A   Clear
4:00 AM 39.2 °F - 39.2 °F 100% 30.33 in - Calm Calm - N/A   Clear
4:30 AM 39.2 °F - 37.4 °F 93% 30.33 in - Calm Calm - N/A   Clear
5:00 AM 39.2 °F - 37.4 °F 93% 30.33 in - Calm Calm - N/A   Clear
5:30 AM 39.2 °F - 37.4 °F 93% 30.33 in - Calm Calm - N/A   Clear
5:47 AM 39 °F - 38 °F 93% 30.41 in 6 mi Calm Calm - -  
6:00 AM 39.2 °F - 37.4 °F 93% 30.36 in - Calm Calm - N/A   Clear
6:30 AM 37.4 °F - 37.4 °F 100% 30.36 in - Calm Calm - N/A   Clear
7:00 AM 37.4 °F - 35.6 °F 93% 30.36 in - Calm Calm - N/A   Clear
7:30 AM 37.4 °F - 35.6 °F 93% 30.39 in - Calm Calm - N/A   Clear
8:00 AM 37.4 °F - 37.4 °F 100% 30.39 in - Calm Calm - N/A   Clear
8:30 AM 41.0 °F - 41.0 °F 100% 30.42 in - Calm Calm - N/A   Clear
9:00 AM 44 °F - 41 °F 87% 30.47 in 5 mi Calm Calm - -  
9:00 AM 44.6 °F - 41.0 °F 87% 30.42 in 5.0 mi Calm Calm - N/A   Unknown
9:30 AM 48.2 °F - 42.8 °F 82% 30.42 in - Calm Calm - N/A   Clear
10:00 AM 51.8 °F - 41.0 °F 67% 30.45 in - Calm Calm - N/A   Clear
10:30 AM 51.8 °F - 41.0 °F 67% 30.45 in - Calm Calm - N/A   Clear
11:00 AM 53.6 °F - 41.0 °F 62% 30.45 in - Calm Calm - N/A   Clear
11:30 AM 53.6 °F - 39.2 °F 58% 30.42 in - NE 4.6 mph - N/A   Clear
12:00 PM 55 °F - 40 °F 47% 30.43 in 6 mi NE 5.8 mph - -  
12:00 PM 55.4 °F - 41.0 °F 58% 30.42 in - NE 5.8 mph - N/A   Clear
12:30 PM 55.4 °F - 41.0 °F 58% 30.42 in - Variable 2.3 mph - N/A   Clear
1:00 PM 57.2 °F - 39.2 °F 51% 30.42 in - NE 6.9 mph - N/A   Clear
1:30 PM 57.2 °F - 39.2 °F 51% 30.39 in - NNE 5.8 mph - N/A   Clear
2:30 PM 59.0 °F - 39.2 °F 48% 30.39 in - ENE 3.5 mph - N/A   Clear
3:00 PM 59 °F - 37 °F 32% 30.38 in 6 mi East 2.3 mph - -  
3:00 PM 59.0 °F - 37.4 °F 45% 30.39 in - ENE 3.5 mph - N/A   Clear
3:30 PM 59.0 °F - 37.4 °F 45% 30.39 in - NE 4.6 mph - N/A   Clear
4:00 PM 59.0 °F - 39.2 °F 48% 30.39 in - ENE 4.6 mph - N/A   Clear
4:30 PM 59.0 °F - 37.4 °F 45% 30.39 in - ENE 5.8 mph - N/A   Clear
5:00 PM 57.2 °F - 39.2 °F 51% 30.39 in - ENE 5.8 mph - N/A   Clear
5:30 PM 55.4 °F - 39.2 °F 54% 30.39 in - ENE 4.6 mph - N/A   Clear
6:00 PM 53 °F - 39 °F 47% 30.40 in 6 mi ENE 4.6 mph - -  
6:00 PM 53.6 °F - 37.4 °F 54% 30.39 in - ENE 4.6 mph - N/A   Clear
6:30 PM 51.8 °F - 39.2 °F 62% 30.39 in - East 5.8 mph - N/A   Clear
7:00 PM 50.0 °F - 41.0 °F 71% 30.39 in - ENE 5.8 mph - N/A   Clear
7:30 PM 50.0 °F - 41.0 °F 71% 30.42 in - Calm Calm - N/A   Clear
8:00 PM 48.2 °F - 42.8 °F 82% 30.42 in - ENE 3.5 mph - N/A   Clear
8:30 PM 48.2 °F - 41.0 °F 76% 30.42 in - East 4.6 mph - N/A   Clear
9:00 PM 47 °F - 41 °F 72% 30.46 in 6 mi East 5.8 mph - -  
9:00 PM 48.2 °F - 41.0 °F 76% 30.42 in - East 5.8 mph - N/A   Clear
9:30 PM 44.6 °F 41.4 °F 41.0 °F 87% 30.42 in - East 5.8 mph - N/A   Clear
10:00 PM 44.6 °F 41.4 °F 41.0 °F 87% 30.45 in - East 5.8 mph - N/A   Clear
10:30 PM 44.6 °F 42.2 °F 39.2 °F 81% 30.45 in - East 4.6 mph - N/A   Clear
11:00 PM 44.6 °F 43.1 °F 41.0 °F 87% 30.45 in - East 3.5 mph - N/A   Clear
11:30 PM 42.8 °F 39.3 °F 39.2 °F 87% 30.45 in 5.6 mi East 5.8 mph - N/A   Unknown